Info Terbaru :

Jackpot

Texas Poker Multi Jackpot System

Kini Telah hadir Jackpot SUPER ROYAL FLUSH

Kini Telah hadir Jackpot 2000 (khusus table VIP keatas).

Ikutilah global jackpot yang tersedia di system kami, dengan system jackpot terbaru dan pertama di indonesia, anda dapat membeli jackpot dengan harga 100 rupiah saja dan menangkan hadiahnya hingga puluhan juta rupiah.

Jackpot bukanlah suatu keharusan untuk dibeli, namun kami memberikan suatu fitur tambahan untuk member tercinta dari www.pokerstar88.net.

Terdapat tiga pilihan harga jackpot yang bisa anda beli yaitu :100,500,1000 dan 2000(khusus table VIP Keatas) rupiah.

Hadiah dari Multi jackpot system www.pokerstar88.net

  1. full house x 10 harga jackpot yang anda beli.
      (contoh:anda membeli 1000 maka:1000 X10 = 10.000)
  2. four of kind x 250 harga jackpot yang anda beli
      (contoh:anda membeli 1000 maka:1000 X250 = 250.000)
  3. Straight flush x 1200
      (contoh:anda membeli 1000 maka:1000 X1200 = 1.200.000)
  4. Royal flush x 10000 harga jackpot yang anda beli
      (contoh:anda membeli 1000 maka:1000 X10000 = 10.000.000)
  5. SUPER ROYAL FLUSH x 30000 harga jackpot yang anda beli
      (contoh:anda membeli 1000 maka:1000 X30000 = 30.000.000)

Kondisi kartu

  1. full house adalah kondisi kartu dimana kartu anda dan kartu tengah dengan total 7 kartu bisa mendapatkan nilai 5 kartu dengan kombinasi 1 tris(three of kind) dan 1 pair, contoh 3 kartu 10 dan 2 kartu 5
  2. Four of kind adalah kondisi kartu dimana kartu anda dan kartu tengah dengan total 7 kartu bisa mendapatkan nilai 5 kartu dengan kombinasi 4 kartu yang sama jumlah dan 1 kartu apapun juga contoh anda mendapatkan 4 buah kartu angka 3 dan 1 kartu apapun.
  3. Staright flush adalah kondisi kartu dimana kartu anda dan kartu tengah dengan total 7 kartu bisa mendapatkan nilai 5 kartu dengan kombinasi seri / staright dengan kembang yang sama contoh : urutan kartu dari angka 5, 6, 7, 8 , 9 10 dengan kembang yg sama misalnya as hati
  4. Royal flush adalah kondisi kartu dimana kartu anda dan kartu tengah dengan total 7 kartu bisa mendapatkan nilai 5 kartu dengan kombinasi seri / staright dengan kembang yang sama tetapi kartu tersebut haruslah dimulai dari 10. contoh 10, Queen, Jack, King dan aces dengan kembang yang sama
  5. Super Royal flush adalah kondisi kartu dimana Kedua kartu anda digabung dengan 3 kartu pertama meja haruslah royal flush. contoh kartu anda 10,Queen kembang sama dan 3 kartu pertama meja adalah Jack, King dan aces dengan kembang yang sama

Demikian adalah penjelasan dari Multi Jackpot www.pokerstar88.net terima kasih dan selamat bermain salam hoki dari kami

Texas Poker Jackpot Winner

TOP SUPER ROYAL FLUSH
No.TanggalNamaPriceWin
126/09 16:29REY_99Super Royal flush3,000,000
225/09 21:59WITHRAW99Super Royal flush30,000,000
325/09 21:32GOGO1204Super Royal flush30,000,000
425/09 20:13MOWHAK99Super Royal flush6,000,000
525/09 18:07RAY_VENKSuper Royal flush30,000,000
TOP ROYAL FLUSH
No.TanggalNamaPriceWin
126/09 17:39ROI3791Royal flush1,000,000
226/09 17:35RAKA25Royal flush500,000
326/09 17:18KUCUKAHARoyal flush2,000,000
426/09 17:11TEMPOER999Royal flush2,000,000
526/09 17:06LINHPOKERRoyal flush5,000,000
TOP STRAIGHT FLUSH
No.TanggalNamaPriceWin
126/09 17:43B05065B0Straight Flush600,000
226/09 17:41BAJAY789Straight Flush120,000
326/09 17:40SANGGINGStraight Flush600,000
426/09 17:39LAUK_NILEMStraight Flush600,000
526/09 17:39PRINCEZINOStraight Flush240,000
LATEST JACKPOT
No.TanggalNamaPriceWin
126/09 17:44BNI20000Full House10,000
226/09 17:44ELIASANDENFull House2,000
326/09 17:44C16DESY333799Full House1,000
426/09 17:44VIVO371Full House10,000
526/09 17:44SANGSAKAFull House2,000
626/09 17:44CHAN78Four Of A Kind125,000
726/09 17:44MHYN96Full House2,000
826/09 17:44T364LFull House5,000
926/09 17:44R4YH4N03Full House1,000
1026/09 17:44DEWAQQ90Four Of A Kind50,000
1126/09 17:44RACHMATHFull House2,000
1226/09 17:44HK_DNFour Of A Kind125,000
1326/09 17:44LALOS99Full House20,000
1426/09 17:44BEILYBAGUSFull House2,000
1526/09 17:44TEKNO_IDFull House20,000
1626/09 17:44KAMEK27Four Of A Kind250,000
1726/09 17:44EGHAAJJAFull House5,000
1826/09 17:44CALOK12Full House1,000
1926/09 17:44ARTGIESFull House10,000
2026/09 17:44SOFIA88888Full House20,000
2126/09 17:44BABEHNCAMFull House10,000
2226/09 17:44ANNA15Full House1,000
2326/09 17:44ANORA99Full House5,000
2426/09 17:44NOTAKUFull House5,000
2526/09 17:44AWW1313Full House2,000
2626/09 17:43T1KXXXT0KFull House10,000
2726/09 17:43JHONAZFull House2,000
2826/09 17:43RIFAI1995Full House2,000
2926/09 17:43DONIDOANK8Full House10,000
3026/09 17:43LED999Full House20,000
3126/09 17:43HONDAFull House1,000
3226/09 17:43DENISDWFull House1,000
3326/09 17:43JULIAH000Full House5,000
3426/09 17:43D1ND1NGFour Of A Kind50,000
3526/09 17:43IOL4P4MRM1Full House5,000
3626/09 17:43OPQRSTU11Full House1,000
3726/09 17:43NOER03Full House10,000
3826/09 17:43OYIRA19Full House5,000
3926/09 17:43LABOLD16Full House10,000
4026/09 17:43MODETOPSONFull House5,000
4126/09 17:43LUCKYDIMFull House20,000
4226/09 17:43LECOK21Four Of A Kind250,000
4326/09 17:43FD2FC893Full House2,000
4426/09 17:43DRAG12345Full House5,000
4526/09 17:43NAFDILAFull House2,000
4626/09 17:43PANDAWA91Four Of A Kind25,000
4726/09 17:43PENJARAKU0Full House5,000
4826/09 17:43TAMPOMAS88Full House1,000
4926/09 17:43BENDOET66Full House2,000
5026/09 17:43H2KPHSBSROFull House5,000

Domino Multi Jackpot System

Ikutilah global jackpot yang tersedia di system kami, dengan system jackpot terbaru dan pertama di indonesia, anda dapat membeli jackpot dengan harga 100 rupiah saja dan menangkan hadiahnya hingga puluhan juta rupiah.

Jackpot bukanlah suatu keharusan untuk dibeli, namun kami memberikan suatu fitur tambahan untuk member tercinta dari www.pokerstar88.net.

Terdapat tiga pilihan harga jackpot yang bisa anda beli yaitu :100,500 dan 1000 rupiah.

Hadiah dari Multi jackpot system www.pokerstar88.net

  1. Murni Kecil x 50 harga jackpot yang anda beli.
      (contoh:anda membeli 1000 maka:1000 X 50 = 50.000)
  2. Murni Besar x 50 harga jackpot yang anda beli
      (contoh:anda membeli 1000 maka:1000 X 50 = 50.000)
  3. BALAK x 100 harga jackpot yang anda beli
      (contoh:anda membeli 1000 maka:1000 X 100 = 100.000)
  4. ENAM DEWA x 6666 harga jackpot yang anda beli
      (contoh:anda membeli 1000 maka:1000 X 6666 = 6.666.000)

Demikian adalah penjelasan dari Multi Jackpot www.pokerstar88.net terima kasih dan selamat bermain salam hoki dari kami

Domino Jackpot Winner

TOP ENAM DEWA
No.TanggalNamaPriceWin
126/09 14:18HAHIHE321murni enam3,333,000
226/09 12:32B0372F56murni enam6,666,000
326/09 09:45SUKMAH_90murni enam666,600
426/09 09:39RIC_53murni enam6,666,000
526/09 07:52SEMOK_MOmurni enam666,600
TOP BALAK
No.TanggalNamaPriceWin
126/09 17:42RAYEMbalak50,000
226/09 17:41BB13B77Dbalak50,000
326/09 17:41MISTIQUE69balak100,000
426/09 17:31MAHO13balak50,000
526/09 17:30GASAX9balak10,000
LATEST JACKPOT
No.TanggalNamaPriceWin
126/09 17:44GOGOLEmurni besar50,000
226/09 17:43GASAX9murni kecil5,000
326/09 17:42RAYEMbalak50,000
426/09 17:42AAMAND4murni kecil50,000
526/09 17:42IPOK99murni kecil50,000
626/09 17:42AY4Y_4BAmurni besar25,000
726/09 17:41BB13B77Dbalak50,000
826/09 17:41MISTIQUE69balak100,000
926/09 17:38VLIHMDUAYmurni besar50,000
1026/09 17:38DWTLOLO2123murni kecil5,000
1126/09 17:36FOREST97murni besar50,000
1226/09 17:36S1LO20lucky992,500
1326/09 17:35KANAI30murni besar50,000
1426/09 17:33BANGOR36murni kecil5,000
1526/09 17:33SATVSKE361murni kecil5,000
1626/09 17:32KEMAN03murni kecil50,000
1726/09 17:32GOIBBAEmurni besar50,000
1826/09 17:32NOMANK_98murni besar25,000
1926/09 17:31MAHO13balak50,000
2026/09 17:31GASAX9murni kecil5,000
2126/09 17:30GASAX9balak10,000
2226/09 17:30J33XP88Tmurni besar5,000
2326/09 17:30BREXDSNP5Sbalak100,000
2426/09 17:30NIKMAT14murni kecil50,000
2526/09 17:30GOGOLEmurni kecil50,000
2626/09 17:30KENTUUmurni besar50,000
2726/09 17:29R4YK1N6balak100,000
2826/09 17:29ANAK_JOKWImurni besar50,000
2926/09 17:29TN35FDBSmurni kecil25,000
3026/09 17:29D450NNmurni kecil50,000
3126/09 17:29DM82997balak50,000
3226/09 17:27ADELONG78murni kecil25,000
3326/09 17:27BERNADEC03murni kecil25,000
3426/09 17:26BAHTIAR87murni kecil25,000
3526/09 17:26NARADA2212lucky992,500
3626/09 17:25NCEX18balak100,000
3726/09 17:25NJH505murni besar5,000
3826/09 17:25SEBONG500murni kecil50,000
3926/09 17:24SISIGALUNGmurni besar50,000
4026/09 17:22B18A18385balak100,000
4126/09 17:22ROLLLINGmurni besar5,000
4226/09 17:22HA24murni kecil50,000
4326/09 17:20CAKEPBOY11murni besar5,000
4426/09 17:18DAN114murni kecil5,000
4526/09 17:18DEWA9999murni besar50,000
4626/09 17:18JJ23JJbalak10,000
4726/09 17:17SATVSKE361murni besar5,000
4826/09 17:17G4G49QQmurni kecil50,000
4926/09 17:17SALMA234murni besar50,000
5026/09 17:15INOW12murni kecil25,000

Ceme Multi Jackpot System

Jackpot dilihat dari gabungan kartu pemain dengan kartu bandar. Bandar harus membeli jackpot sebanyak jumlah player yang sedang duduk. Sebagai contoh bila terdapat 3 pemain duduk bermain, dan bandar memutuskan untuk membeli jackpot Rp 1.000, maka pada periode tersebut bandar akan membeli jackpot sebanyak 3xRp1.000 = Rp3.000.

Jackpot bukanlah suatu keharusan untuk dibeli, namun kami memberikan suatu fitur tambahan untuk member tercinta dari www.pokerstar88.net.

Terdapat tiga pilihan harga jackpot yang bisa anda beli yaitu :100,500 dan 1000 rupiah.

Hadiah dari Multi jackpot system www.pokerstar88.net

  1. Murni Kecil x 50 harga jackpot yang anda beli.
      (contoh:anda membeli 1000 maka:1000 X 50 = 50.000)
  2. Murni Besar x 50 harga jackpot yang anda beli
      (contoh:anda membeli 1000 maka:1000 X 50 = 50.000)
  3. BALAK x 200 harga jackpot yang anda beli
      (contoh:anda membeli 1000 maka:1000 X 200 = 200.000)
  4. ENAM DEWA x 6666 harga jackpot yang anda beli
      (contoh:anda membeli 1000 maka:1000 X 6666 = 6.666.000)

Demikian adalah penjelasan dari Multi Jackpot www.pokerstar88.net terima kasih dan selamat bermain salam hoki dari kami

Ceme Jackpot Winner

TOP ENAM DEWA
No.TanggalNamaPriceWin
126/09 17:30PENTIL00murni enam6,666,000
226/09 17:30ADE05murni enam6,666,000
326/09 17:29RAHMANUL14murni enam3,333,000
426/09 17:07SNI42040murni enam3,333,000
526/09 17:07JJJ310110murni enam6,666,000
TOP BALAK
No.TanggalNamaPriceWin
126/09 17:44HARSONO16balak200,000
226/09 17:44NURJOSSS88balak200,000
326/09 17:44JIWOX123balak200,000
426/09 17:43SYAIFUL16balak200,000
526/09 17:43JULIYANbalak200,000
LATEST JACKPOT
No.TanggalNamaPriceWin
126/09 17:44BBFEFA63murni kecil5,000
226/09 17:44TEMPANG98murni besar50,000
326/09 17:44B61123546murni kecil25,000
426/09 17:44HARSONO16balak200,000
526/09 17:44NURJOSSS88balak200,000
626/09 17:44KATAK1murni kecil25,000
726/09 17:44JIWOX123balak200,000
826/09 17:44IENNEYmurni kecil50,000
926/09 17:44LB98335murni kecil50,000
1026/09 17:44LB98015murni besar50,000
1126/09 17:44BEBEK1507murni besar25,000
1226/09 17:44W3AH0RMJJAmurni besar5,000
1326/09 17:44W3AH0RMJJAmurni besar5,000
1426/09 17:43SYAIFUL16balak200,000
1526/09 17:43JULIYANbalak200,000
1626/09 17:43MLEKEXmurni besar50,000
1726/09 17:43ARZETTI18murni besar50,000
1826/09 17:43PENTIL00murni kecil50,000
1926/09 17:43RYOTA_murni kecil50,000
2026/09 17:43MIHO004balak100,000
2126/09 17:43PANENDUETmurni besar5,000
2226/09 17:43F4IZ77murni kecil50,000
2326/09 17:43MAJID222murni kecil5,000
2426/09 17:43TIGIR55balak200,000
2526/09 17:43C20NI990balak200,000
2626/09 17:43O5LIPAFDUMmurni kecil50,000
2726/09 17:43EKYARFmurni kecil50,000
2826/09 17:42PUP4PUmurni besar25,000
2926/09 17:42VERONA25balak20,000
3026/09 17:42SAMBALADO7balak20,000
3126/09 17:42OMWIN888balak100,000
3226/09 17:42A53RT610balak100,000
3326/09 17:41SURAHMAN25murni besar50,000
3426/09 17:41ORACLE007balak20,000
3526/09 17:41COMBITbalak200,000
3626/09 17:41SIMADU3murni kecil50,000
3726/09 17:41BOY7474murni kecil25,000
3826/09 17:41AK5BN5I1FWbalak200,000
3926/09 17:41ABELL30murni kecil25,000
4026/09 17:41SAHRUL14murni kecil25,000
4126/09 17:41BOPENGGGmurni kecil25,000
4226/09 17:41LASERJETmurni besar50,000
4326/09 17:41BELEDANGmurni kecil5,000
4426/09 17:41AFCVHZG8B7balak100,000
4526/09 17:41L1L1L1L1L1murni besar25,000
4626/09 17:41JM2murni kecil50,000
4726/09 17:41MERKUJOmurni kecil50,000
4826/09 17:41WIDHI07murni besar50,000
4926/09 17:41GHOSTARMYmurni kecil5,000
5026/09 17:41DREDETANmurni besar50,000